Simultaneous Nadir Overpasses (SNOs) Predictions

Prediction of SNOs between GOES-16 and NOAA-19 Satellite Orbit:

Table of predicted SNOs for the next 14.0 days since TLE Epoch: 2/17/2024
Index Date Time (GOES-16) GOES-16 Lat,Lon NOAA-19 Lat,Lon Distance(km) Time Diff (sec)
1 02/18/2024 14:16:05 0.03, -75.22 0.57, -77.60 271.28 80
2 02/19/2024 14:01:13 0.02, -75.23 -0.12, -74.64 67.77 80
3 02/20/2024 13:49:02 0.02, -75.24 -0.81, -71.67 407.06 80
4 02/22/2024 02:23:34 -0.04, -75.23 -1.00, -79.31 466.59 80
5 02/23/2024 02:11:23 -0.04, -75.24 -0.30, -76.35 126.77 80
6 02/24/2024 01:56:31 -0.04, -75.25 0.39, -73.39 213.28 80
7 02/26/2024 14:18:54 0.04, -75.32 0.68, -78.08 315.13 80
8 02/27/2024 14:04:03 0.04, -75.34 -0.03, -75.12 25.71 80
9 02/28/2024 13:51:50 0.04, -75.36 -0.69, -72.14 366.49 80
